Flag for Russia Weather past 2 weeks in Kaliningrad, Russia

Now
55 °F

Passing clouds.


Feels Like: 53 °F
Forecast: 42 / 61 °F
Wind: 10 mph from Southeast

Location: Kaliningrad/Khrabrovo Airport

Current Time: Oct 1, 2014 at 3:40:26 PM

Latest Report: Oct 1, 2014 at 3:00 PM


Visibility: N/A

Pressure: 30.42 "Hg

Humidity: 55%

Dew point: 39 °F

Location of KaliningradLocation

Historic Weather in Kaliningrad — Graph

°F

Kaliningrad temperature yesterday

Maximum temperature yesterday: 59 °F (at 10:30 AM)
Minimum temperature yesterday: 46 °F (at 11:30 PM)
Average temperature yesterday: 55 °F

Past Weeks' High & Low Weather Summary

 TemperatureHumidityPressure
High72 °F (Sep 21, 2:30 PM)94% (Sep 20, 11:00 PM)30.42 "Hg (Sep 20, 11:00 PM)
Low41 °F (Sep 21, 7:30 AM)38% (Sep 17, 5:00 PM)29.53 "Hg (Sep 22, 7:30 AM)
Average55 °F74%30.03 "Hg
* Reported Sep 16 2:00 PM — Oct 1 2:30 PM, Kaliningrad, Weather by CustomWeather, © 2014

Note: Actual official high and low records may vary slightly from our data, if they occured in-between our weather recording intervals... More about our weather records

Advertising

Kaliningrad weather history for previous 24 hours

 ConditionsComfort  
Time TempWeatherWind HumidityBarometerVisibility
2:30 PM
Oct 1
55 °FPassing clouds.10 mph55%30.42 "HgN/A
2:00 PM55 °FPassing clouds.10 mph55%30.42 "HgN/A
1:30 PM54 °FPassing clouds.10 mph63%30.42 "HgN/A
1:00 PM54 °FPartly sunny.10 mph63%30.42 "HgN/A
12:30 PM54 °FPartly sunny.8 mph67%30.42 "HgN/A
12:00 PM52 °FPartly sunny.8 mph72%30.42 "HgN/A
11:30 AM50 °FPartly sunny.6 mph76%30.42 "HgN/A
11:00 AM48 °FPassing clouds.6 mph82%30.42 "HgN/A
10:30 AM48 °FPassing clouds.6 mph82%30.42 "HgN/A
10:00 AM46 °FPassing clouds.6 mph87%30.42 "HgN/A
9:30 AM45 °FClear.6 mph87%30.42 "Hg10 mi
9:00 AM45 °FClear.3 mph87%30.42 "Hg10 mi
8:30 AM43 °FClear.3 mph87%30.39 "Hg10 mi
8:00 AM43 °FClear.3 mph87%30.39 "Hg10 mi
7:30 AM45 °FClear.6 mph81%30.39 "Hg10 mi
7:00 AM45 °FClear.3 mph81%30.39 "Hg10 mi
6:30 AM45 °FPassing clouds.3 mph81%30.39 "HgN/A
6:00 AM45 °FClear.3 mph81%30.39 "Hg5 mi
5:30 AM45 °FClear.6 mph87%30.39 "Hg5 mi
5:00 AM45 °FClear.6 mph87%30.39 "Hg5 mi
4:30 AM45 °FClear.6 mph87%30.36 "Hg5 mi
4:00 AM45 °FClear.6 mph87%30.36 "Hg5 mi
3:30 AM46 °FClear.6 mph87%30.36 "Hg5 mi
3:00 AM46 °FClear.3 mph87%30.36 "Hg5 mi
2:30 AM46 °FClear.3 mph87%30.36 "Hg5 mi
2:00 AM46 °FClear.3 mph87%30.36 "Hg5 mi
1:30 AM46 °FFog.1 mph87%30.33 "Hg4 mi
1:00 AM46 °FClear.1 mph87%30.33 "Hg10 mi
12:30 AM48 °FClear.1 mph87%30.33 "Hg10 mi
12:00 AM46 °FClear.1 mph87%30.33 "Hg10 mi
11:30 PM
Sep 30
46 °FClear.No wind87%30.33 "Hg10 mi
11:00 PM48 °FClear.No wind82%30.33 "Hg10 mi
10:30 PM48 °FClear.1 mph82%30.30 "Hg10 mi
10:00 PM50 °FClear.3 mph82%30.30 "Hg10 mi
9:30 PM52 °FClear.1 mph82%30.30 "Hg10 mi
9:00 PM54 °FSunny.3 mph77%30.30 "Hg10 mi
8:30 PM54 °FPassing clouds.6 mph77%30.30 "HgN/A
8:00 PM55 °FSunny.6 mph72%30.30 "Hg10 mi
7:30 PM55 °FSunny.6 mph72%30.27 "Hg10 mi
7:00 PM55 °FSunny.6 mph72%30.27 "Hg10 mi
6:30 PM57 °FSunny.6 mph67%30.27 "Hg10 mi
6:00 PM57 °FSunny.6 mph67%30.27 "Hg10 mi
5:30 PM59 °FSunny.6 mph63%30.24 "Hg10 mi
5:00 PM59 °FSunny.6 mph68%30.24 "Hg10 mi
4:30 PM59 °FSunny.10 mph72%30.24 "Hg10 mi
4:00 PM59 °FOvercast.8 mph72%30.24 "HgN/A
3:30 PM59 °FOvercast.6 mph77%30.24 "HgN/A
3:00 PM59 °FOvercast.6 mph77%30.24 "HgN/A
Weather by CustomWeather, © 2014

See weather overviewHow to use our weather pages